Location: Clarks Summit,Pa.
(41.5000°N, 75.6000°W)
Time: 18:44:59
(UTC-05:00)

OTV 5 (USA 277) - Visible Passes

Search period start: 15 February 2019 00:00
Search period end: 25 February 2019 00:00
Orbit: 342 x 346 km, 54.5° (Epoch: 09 February)

Date Brightness Start Highest point End Pass type
(mag) Time Alt. Az. Time Alt. Az. Time Alt. Az.
15 Feb ? 04:55:43 26° ENE 04:55:43 26° ENE 04:57:32 10° E visible
16 Feb ? 05:19:01 59° SSE 05:19:01 59° SSE 05:21:28 10° SE visible
17 Feb ? 05:42:26 19° SW 05:42:26 19° SW 05:44:16 10° S visible
22 Feb ? 19:19:07 10° SSW 19:20:39 25° S 19:20:39 25° S visible
23 Feb ? 19:42:36 10° WSW 19:44:17 30° W 19:44:17 30° W visible
24 Feb ? 18:31:33 10° SSW 18:34:16 37° SE 18:36:19 15° ENE visible
24 Feb ? 20:06:59 10° W 20:07:46 14° WNW 20:07:46 14° WNW visible
